Weather in Dunedin

New Zealand     45°52′34″S   170°30′09″E
temp.,
°C
wind,
m/s
gust,
m/s
humid.,
%
clouds,
%
prec.,
mm/h
press.,
hPa
HPBL,
m
7 march, sun
sun701:00+13wnw447173 0.3 992121
04:00+12w567314 0.1 991189
07:00+12w6107410 0.1 991407
10:00+13w711670 0.0 992803
13:00+13w10147411 0.2 9921347
16:00+13sw10146699 0.8 9931810
19:00+12wsw14186784 1.3 9951785
22:00+11wsw15197391 0.4 9991818
8 march, mon
mon801:00+11wsw14187075 0.7 10011647
04:00+11wsw13177023 0.3 10031739
07:00+11wsw12167054 0.4 10051714
10:00+11wsw11147169 0.2 10081592
13:00+12wsw9116784 0.4 10091508
16:00+13wsw91066100 0.1 10091407
19:00+14ssw796898 0.1 10101197
22:00+14w3569100 0.0 1013388
9 march, tue
tue901:00+12nw347181 0.0 1013195
04:00+13nnw2267100 0.0 1013126
07:00+12nw337068 0.0 1014113
10:00+14n236667 0.0 1014117
13:00+15ene556644 0.0 1013124
16:00+15ne9117139 0.0 1010170
19:00+16nne9126570 0.0 1010193
22:00+15nne71075100 0.0 1010191
10 march, wed
wed1001:00+15nne6876100 0.0 1008108
04:00+15nnw3367100 0.0 100636
07:00+13n4582100 1.1 1005169
10:00+13wsw3386100 0.3 1006143
13:00+13sw6788100 1.1 1007552
16:00+13wsw6787100 1.2 1008657
19:00+12ssw91179100 2.9 10101059
22:00+12ssw101173100 0.5 10151267
11 march, thu
thu1101:00+11ssw786790 0.6 10171291
04:00+10sw676845 0.1 10181128
07:00+9w457557 0.1 1021321
10:00+9w337269 0.0 1022377
13:00+10s226436 0.1 1023505
16:00+11e43612 0.0 1022722
19:00+11ene66641 0.0 1022841
22:00+11ne78693 0.0 1023790